Weather reports worldwide

Advertisment
Murcia, Spain (8430): temperature & dewpoint: 29.03.2020 01:00:00 - 04.04.2020 01:00:00 (CEST)Murcia, Spain (8430): wind speed: 29.03.2020 01:00:00 - 04.04.2020 01:00:00 (CEST)Murcia, Spain (8430): wind direction: 29.03.2020 01:00:00 - 04.04.2020 01:00:00 (CEST)Murcia, Spain (8430): reduced air pressure: 29.03.2020 01:00:00 - 04.04.2020 01:00:00 (CEST)Murcia, Spain (8430): visibility: 29.03.2020 01:00:00 - 04.04.2020 01:00:00 (CEST)Murcia, Spain (8430): precipitation: 29.03.2020 01:00:00 - 04.04.2020 01:00:00 (CEST)
Date & Time tt [°C] td [°C] ff [km/h] ff [kn] dd ppp [hPa] vv [km] rr [mm]
04.04.2020 01:00:00 10,8 8,7 8 4 NE 1019,2 16 0,0
04.04.2020 00:00:00 11,2 8,9 8 4 N 1019,1 17 0,0
03.04.2020 23:00:00 11,9 8,7 8 4 NNE 1018,9 17 -
03.04.2020 22:00:00 13,4 8,7 9 5 ENE 1018,3 19 0,0
03.04.2020 21:00:00 14,8 8,1 5 3 E 1017,4 20 0,0
03.04.2020 20:00:00 16,7 7,6 9 5 ESE 1016,9 20 -
03.04.2020 19:00:00 17,9 7,6 8 4 SE 1016,5 20 0,0
03.04.2020 18:00:00 18,7 7,8 11 6 ESE 1016,2 20 0,0
03.04.2020 17:00:00 18,2 7,3 11 6 E 1016,1 20 -
03.04.2020 16:00:00 20,1 6,8 8 4 S 1016,1 20 0,0
03.04.2020 15:00:00 21,0 6,9 5 3 WSW 1016,5 20 0,0
03.04.2020 14:00:00 19,9 6,9 5 3 SSW 1016,9 20 -
03.04.2020 13:00:00 18,7 8,1 4 2 S 1017,3 20 0,0
03.04.2020 12:00:00 17,3 8,4 8 4 WNW 1017,6 20 0,0
03.04.2020 11:00:00 15,5 8,2 11 6 W 1017,5 20 -
03.04.2020 10:00:00 13,4 9,4 11 6 W 1017,1 20 0,0
03.04.2020 09:00:00 12,0 9,9 5 3 SW 1016,6 19 0,0
03.04.2020 08:00:00 10,9 9,7 4 2 SW 1015,9 17 -
03.04.2020 07:00:00 10,6 9,7 4 2 W 1015,4 14 0,0
03.04.2020 06:00:00 10,5 9,7 4 2 WSW 1014,8 13 0,0
03.04.2020 05:00:00 10,6 9,7 5 3 ESE 1014,4 12 -
03.04.2020 04:00:00 10,7 9,9 4 2 SSW 1014,4 11 0,0
03.04.2020 03:00:00 10,8 9,9 4 2 S 1014,5 12 0,0
03.04.2020 02:00:00 11,4 10,3 4 2 SSW 1014,6 12 -
03.04.2020 01:00:00 11,4 10,3 4 2 W 1014,8 17 0,0
03.04.2020 00:00:00 11,0 9,6 2 1 NW 1014,7 19 0,0
02.04.2020 23:00:00 11,9 10,5 8 4 E 1014,2 14 -
02.04.2020 22:00:00 13,1 11,5 13 7 ENE 1013,4 11 0,2
02.04.2020 21:00:00 13,8 10,6 11 6 NE 1012,3 19 0,0
02.04.2020 20:00:00 14,4 12,1 11 6 NNE 1011,8 16 -
02.04.2020 19:00:00 14,9 10,3 9 5 NE 1011,4 20 0,2
02.04.2020 18:00:00 17,7 8,3 5 3 SSW 1010,8 20 0,0
02.04.2020 17:00:00 17,4 6,9 15 8 S 1010,2 20 -
02.04.2020 16:00:00 17,8 6,6 13 7 S 1010,1 20 0,0
02.04.2020 15:00:00 19,2 7,0 5 3 SW 1010,3 20 0,0
02.04.2020 14:00:00 18,4 6,6 9 5 WNW 1010,8 20 -
02.04.2020 13:00:00 17,5 5,7 8 4 W 1011,5 20 0,0
02.04.2020 12:00:00 15,8 8,3 11 6 NW 1012,1 20 0,0
02.04.2020 11:00:00 13,8 9,8 4 2 NW 1012,1 20 -
02.04.2020 10:00:00 10,9 9,3 4 2 S 1012,2 20 0,0
02.04.2020 09:00:00 8,7 8,2 2 1 SSW 1011,8 12 0,0
02.04.2020 08:00:00 8,0 7,1 5 3 N 1011,5 16 -
02.04.2020 07:00:00 8,6 7,8 4 2 SW 1011,0 14 0,0
02.04.2020 06:00:00 8,9 8,1 4 2 W 1010,9 18 0,0
02.04.2020 05:00:00 10,2 8,8 5 3 WSW 1011,1 20 -
02.04.2020 04:00:00 10,6 9,4 4 2 WSW 1011,6 19 0,0
02.04.2020 03:00:00 11,1 9,8 8 4 W 1012,2 19 0,0
02.04.2020 02:00:00 11,6 10,2 8 4 WNW 1012,1 19 -
02.04.2020 01:00:00 12,1 10,7 8 4 W 1013,7 4,3 0,8
02.04.2020 00:00:00 12,2 10,4 15 8 NW 1013,5 16 2,0
01.04.2020 23:00:00 13,8 11,3 16 9 NW 1012,4 6 -
01.04.2020 22:00:00 14,4 12,8 9 5 NNW 1010,9 18 0,0
01.04.2020 21:00:00 15,2 13,0 8 4 SW 1010,3 13 1,0
01.04.2020 20:00:00 17,9 11,7 9 5 W 1009,8 18 -
01.04.2020 19:00:00 18,5 11,6 2 1 WNW 1009,1 20 0,0
01.04.2020 18:00:00 19,4 11,4 9 5 SSE 1008,3 20 0,0
01.04.2020 17:00:00 18,2 11,3 11 6 SSE 1009,3 20 -
01.04.2020 16:00:00 19,5 11,3 11 6 SSE 1009,2 20 0,0
01.04.2020 15:00:00 22,0 9,2 2 1 SSW 1009,8 20 0,0
01.04.2020 14:00:00 21,1 10,0 9 5 ESE 1010,7 20 -
01.04.2020 13:00:00 19,6 10,8 5 3 W 1011,4 20 0,0
01.04.2020 12:00:00 17,8 10,9 8 4 SSW 1012,0 20 0,0
01.04.2020 11:00:00 16,5 11,6 5 3 NW 1012,0 20 -
01.04.2020 10:00:00 14,0 11,5 4 2 NNW 1011,9 18 0,0
01.04.2020 09:00:00 13,5 12,9 4 2 WSW 1011,6 4,1 0,0
01.04.2020 08:00:00 13,0 12,5 5 3 WSW 1011,1 3,3 -
01.04.2020 07:00:00 13,1 12,6 4 2 W 1010,9 3,6 0,0
01.04.2020 06:00:00 13,1 12,5 5 3 NNW 1010,5 3,2 0,0
01.04.2020 05:00:00 13,1 12,5 5 3 NNE 1010,8 3,5 -
01.04.2020 04:00:00 13,0 12,1 4 2 NE 1011,1 4,3 0,0
01.04.2020 03:00:00 13,7 12,8 4 2 NE 1011,6 6 0,0
01.04.2020 02:00:00 13,8 12,9 5 3 ENE 1011,7 7 -
01.04.2020 01:00:00 13,8 12,7 5 3 NE 1011,7 7 0,0
01.04.2020 00:00:00 13,8 12,5 5 3 NE 1011,5 9 0,0
31.03.2020 23:00:00 14,5 12,7 8 4 ENE 1011,2 11 -
31.03.2020 22:00:00 14,5 12,7 4 2 ENE 1010,5 9 0,0
31.03.2020 21:00:00 15,3 12,6 8 4 E 1009,4 13 0,0
31.03.2020 20:00:00 16,6 12,5 8 4 E 1008,8 16 -
31.03.2020 19:00:00 17,0 12,7 5 3 E 1008,5 17 0,0
31.03.2020 18:00:00 18,4 12,2 5 3 E 1008,0 19 0,0
31.03.2020 17:00:00 18,7 11,7 5 3 E 1008,0 20 -
31.03.2020 16:00:00 17,1 11,8 5 3 NE 1008,4 19 0,0
31.03.2020 15:00:00 17,1 11,4 8 4 E 1008,5 19 0,0
31.03.2020 14:00:00 16,7 12,0 8 4 E 1008,8 17 -
31.03.2020 13:00:00 14,9 11,7 5 3 E 1008,9 17 0,0
31.03.2020 12:00:00 13,9 11,1 4 2 WNW 1009,1 15 0,0
31.03.2020 11:00:00 13,8 11,0 5 3 NNW 1009,1 18 -
31.03.2020 10:00:00 12,1 10,7 8 4 ENE 1009,0 15 0,2
31.03.2020 09:00:00 11,4 10,5 5 3 E 1008,9 12 2,0
31.03.2020 08:00:00 12,1 9,5 15 8 WSW 1009,2 19 -
31.03.2020 07:00:00 11,6 9,2 4 2 NNE 1007,3 16 0,0
31.03.2020 06:00:00 11,8 9,2 8 4 E 1007,7 19 0,0
31.03.2020 05:00:00 11,5 9,4 8 4 ENE 1008,1 19 -
31.03.2020 04:00:00 11,9 9,6 9 5 ENE 1009,0 18 0,0
31.03.2020 03:00:00 12,2 9,6 15 8 ENE 1010,0 18 0,0
31.03.2020 02:00:00 12,0 9,6 15 8 NE 1010,4 15 -
31.03.2020 01:00:00 12,0 9,4 15 8 ENE 1011,1 15 0,0
31.03.2020 00:00:00 12,1 9,1 18 10 ENE 1011,4 14 0,0
30.03.2020 23:00:00 12,1 8,8 15 8 ENE 1011,2 14 -
30.03.2020 22:00:00 12,4 8,7 15 8 ENE 1011,4 14 0,0
30.03.2020 21:00:00 12,6 8,7 16 9 ENE 1011,0 15 0,0
30.03.2020 20:00:00 13,0 8,9 18 10 ENE 1010,9 15 -
30.03.2020 19:00:00 13,3 9,2 16 9 ENE 1010,8 15 0,0
30.03.2020 18:00:00 14,4 9,8 22 12 ENE 1010,8 14 0,0
30.03.2020 17:00:00 14,8 10,2 22 12 E 1011,0 13 -
30.03.2020 16:00:00 16,4 11,5 18 10 E 1010,8 15 0,0
30.03.2020 15:00:00 17,4 11,9 21 11 ENE 1011,2 14 0,0
30.03.2020 14:00:00 18,2 12,0 21 11 ENE 1011,8 19 -
30.03.2020 13:00:00 17,4 11,2 21 11 ENE 1012,3 18 0,0
30.03.2020 12:00:00 15,6 9,7 11 6 ENE 1012,8 20 0,0
30.03.2020 11:00:00 13,9 9,5 2 1 S 1012,7 10 -
30.03.2020 10:00:00 12,1 9,5 4 2 SW 1012,6 19 0,0
30.03.2020 09:00:00 10,5 8,4 5 3 S 1012,7 15 0,0
30.03.2020 08:00:00 10,1 8,5 4 2 WSW 1012,2 16 -
30.03.2020 07:00:00 9,5 8,1 4 2 SSW 1012,0 16 0,0
30.03.2020 06:00:00 9,8 8,1 5 3 NW 1012,3 16 0,0
30.03.2020 05:00:00 10,7 8,5 4 2 W 1012,9 18 -
30.03.2020 04:00:00 10,5 8,4 4 2 W 1013,3 18 0,0
30.03.2020 03:00:00 11,5 8,7 9 5 W 1013,9 19 0,0
30.03.2020 02:00:00 12,6 8,1 4 2 S 1014,3 20 -
30.03.2020 01:00:00 13,1 8,4 9 5 W 1014,9 20 0,0
30.03.2020 00:00:00 13,6 8,2 4 2 NW 1015,1 20 0,0
29.03.2020 23:00:00 15,2 7,7 8 4 WSW 1015,2 20 -
29.03.2020 22:00:00 15,7 6,7 5 3 SW 1015,3 20 0,0
29.03.2020 21:00:00 16,1 6,5 4 2 SSW 1015,1 20 0,0
29.03.2020 20:00:00 18,5 7,3 9 5 S 1014,7 20 -
29.03.2020 19:00:00 20,5 9,1 15 8 S 1014,4 20 0,0
29.03.2020 18:00:00 22,4 5,3 5 3 SSE 1014,2 20 0,0
29.03.2020 17:00:00 22,3 4,8 8 4 S 1014,7 20 -
29.03.2020 16:00:00 21,8 4,4 11 6 SW 1015,5 20 0,0
29.03.2020 15:00:00 20,8 4,8 8 4 SW 1016,4 20 0,0
29.03.2020 14:00:00 19,9 5,2 9 5 W 1017,1 20 -
29.03.2020 13:00:00 18,3 5,8 11 6 W 1018,0 20 0,0
29.03.2020 12:00:00 16,1 6,8 8 4 WSW 1018,7 20 0,0
29.03.2020 11:00:00 13,5 6,8 4 2 SSW 1019,1 20 -
29.03.2020 10:00:00 11,0 7,5 4 2 SSW 1019,1 17 0,0
29.03.2020 09:00:00 7,8 6,4 2 1 SW 1019,1 15 0,0
29.03.2020 08:00:00 6,3 5,1 4 2 WNW 1019,0 15 -
29.03.2020 07:00:00 6,8 6,1 4 2 SW 1018,7 10 0,0
29.03.2020 06:00:00 7,5 6,4 4 2 WSW 1018,6 11 0,0
29.03.2020 05:00:00 7,3 6,1 2 1 SW 1018,9 10 -
29.03.2020 04:00:00 8,5 7,1 5 3 WSW 1019,5 12 0,0
29.03.2020 03:00:00 8,3 6,9 4 2 NW 1019,9 7 0,0
29.03.2020 02:00:00 8,8 7,7 5 3 W 1020,2 8 -
29.03.2020 01:00:00 - - - - - - - -

tt = temperature
td = dewpoint
ff = wind speed
dd = wind direction
ppp = reduced air pressure
vv = visibility
rr = precipitation

Next stations